Waarnemingen

Advertentie
Mijn weer
St-Hubert, België (6476): temperatuur & dauwpunt: 14.04.2019 02:00:00 - 20.04.2019 02:00:00 (CEST)St-Hubert, België (6476): windsnelheid & windstoten: 14.04.2019 02:00:00 - 20.04.2019 02:00:00 (CEST)St-Hubert, België (6476): windrichting: 14.04.2019 02:00:00 - 20.04.2019 02:00:00 (CEST)St-Hubert, België (6476): luchtdruk: 14.04.2019 02:00:00 - 20.04.2019 02:00:00 (CEST)St-Hubert, België (6476): zicht: 14.04.2019 02:00:00 - 20.04.2019 02:00:00 (CEST)
Datum & Tijd tt [°C] td [°C] ff [km/u] ff [kn] fx [km/u] fx [kn] dd ppp [hPa] vv [km]
20.04.2019 02:00:00 11,0 2,1 14 8 - - O 1028,8 45
20.04.2019 01:00:00 9,7 3,9 14 8 18 10 O 1029,2 50
20.04.2019 00:00:00 11,8 2,9 14 8 22 12 O 1028,7 50
19.04.2019 23:00:00 13,2 3,9 11 6 - - O 1028,3 50
19.04.2019 22:00:00 15,5 5,7 4 2 32 18 ZO 1027,4 45
19.04.2019 21:00:00 14,0 5,9 11 6 14 8 O 1027,2 45
19.04.2019 20:00:00 17,0 6,8 4 2 - - OZO 1026,1 40
19.04.2019 19:00:00 19,3 2,0 11 6 22 12 O 1025,4 30
19.04.2019 18:00:00 19,7 2,3 14 8 25 14 ONO 1025,2 40
19.04.2019 17:00:00 20,1 1,6 7 4 - - - 1025,1 35
19.04.2019 16:00:00 20,0 2,6 7 4 22 12 - 1025,2 35
19.04.2019 15:00:00 19,6 4,8 11 6 25 14 ZZO 1025,5 30
19.04.2019 14:00:00 18,8 5,0 11 6 - - O 1025,5 35
19.04.2019 13:00:00 17,9 4,2 11 6 25 14 ZO 1025,8 30
19.04.2019 12:00:00 16,9 4,3 14 8 29 16 OZO 1026,1 35
19.04.2019 11:00:00 15,6 3,5 14 8 - - OZO 1026,2 40
19.04.2019 10:00:00 14,4 2,9 14 8 25 14 O 1026,1 40
19.04.2019 09:00:00 11,2 1,9 18 10 25 14 O 1026,7 35
19.04.2019 08:00:00 9,1 1,8 18 10 - - ONO 1026,8 35
19.04.2019 07:00:00 8,4 1,0 18 10 29 16 O 1026,5 45
19.04.2019 06:00:00 7,9 1,4 22 12 29 16 O 1026,3 45
19.04.2019 05:00:00 8,6 1,5 18 10 - - ONO 1025,9 45
19.04.2019 04:00:00 10,4 1,4 18 10 29 16 O 1025,1 45
19.04.2019 03:00:00 10,4 2,2 18 10 29 16 O 1025,1 45
19.04.2019 02:00:00 10,6 2,7 18 10 - - O 1025,0 45
19.04.2019 01:00:00 10,6 2,6 14 8 22 12 ONO 1025,0 45
19.04.2019 00:00:00 9,0 3,3 14 8 22 12 ONO 1025,3 45
18.04.2019 23:00:00 9,8 2,8 14 8 - - ONO 1024,9 45
18.04.2019 22:00:00 10,4 3,2 14 8 22 12 O 1024,4 45
18.04.2019 21:00:00 11,9 3,0 11 6 22 12 O 1023,8 45
18.04.2019 20:00:00 15,0 2,2 14 8 - - O 1022,6 45
18.04.2019 19:00:00 16,5 2,7 18 10 32 18 O 1021,7 35
18.04.2019 18:00:00 16,9 2,5 18 10 36 19 O 1021,5 30
18.04.2019 17:00:00 17,0 1,7 18 10 - - O 1021,5 35
18.04.2019 16:00:00 17,2 3,1 18 10 40 21 O 1021,4 40
18.04.2019 15:00:00 16,4 2,4 22 12 40 21 O 1021,7 40
18.04.2019 14:00:00 15,9 1,4 22 12 - - OZO 1022,0 40
18.04.2019 13:00:00 15,9 2,3 18 10 47 25 O 1022,1 30
18.04.2019 12:00:00 15,0 2,3 25 14 40 21 OZO 1022,6 30
18.04.2019 11:00:00 13,1 2,6 25 14 - - OZO 1023,1 30
18.04.2019 10:00:00 11,8 1,7 22 12 36 19 O 1023,1 30
18.04.2019 09:00:00 9,7 0,7 22 12 32 18 O 1023,4 30
18.04.2019 08:00:00 8,3 0,3 18 10 - - O 1023,4 35
18.04.2019 07:00:00 7,2 0,7 18 10 32 18 O 1023,4 35
18.04.2019 06:00:00 7,8 0,9 22 12 32 18 O 1022,9 35
18.04.2019 05:00:00 8,0 3,0 22 12 - - O 1023,0 23
18.04.2019 04:00:00 7,6 3,7 18 10 25 14 O 1022,8 17
18.04.2019 03:00:00 8,0 4,3 18 10 25 14 O 1022,4 14
18.04.2019 02:00:00 8,6 5,2 18 10 - - O 1022,5 12
18.04.2019 01:00:00 8,9 6,2 18 10 25 14 O 1022,4 11
18.04.2019 00:00:00 8,6 6,8 14 8 25 14 O 1022,5 12
17.04.2019 23:00:00 9,4 6,8 18 10 - - O 1022,2 19
17.04.2019 22:00:00 9,1 6,3 14 8 18 10 O 1022,3 18
17.04.2019 21:00:00 8,5 6,4 11 6 18 10 O 1021,8 13
17.04.2019 20:00:00 11,1 6,7 11 6 - - O 1021,1 16
17.04.2019 19:00:00 11,9 6,3 14 8 22 12 O 1021,0 15
17.04.2019 18:00:00 11,4 6,6 11 6 18 10 OZO 1021,2 13
17.04.2019 17:00:00 11,1 6,2 11 6 - - OZO 1021,4 12
17.04.2019 16:00:00 10,7 6,9 11 6 22 12 OZO 1021,6 11
17.04.2019 15:00:00 11,2 5,1 11 6 18 10 ZO 1021,5 16
17.04.2019 14:00:00 11,1 6,3 11 6 - - ZZO 1021,4 13
17.04.2019 13:00:00 10,2 6,9 7 4 14 8 Z 1021,6 -
17.04.2019 12:00:00 8,9 6,4 7 4 11 6 ZZW 1022,1 -
17.04.2019 11:00:00 8,0 5,9 4 2 - - Z 1022,0 -
17.04.2019 10:00:00 7,3 5,7 4 2 7 4 Z 1021,8 3,9
17.04.2019 09:00:00 6,8 5,8 4 2 7 4 ZW 1021,3 2,6
17.04.2019 08:00:00 6,7 6,0 4 2 - - ZZW 1020,8 0,4
17.04.2019 07:00:00 6,6 6,0 7 4 11 6 WZW 1020,3 0,3
17.04.2019 06:00:00 6,6 5,8 4 2 11 6 W 1019,9 1,9
17.04.2019 05:00:00 6,9 6,6 7 4 - - W 1019,7 0,1
17.04.2019 04:00:00 6,9 6,3 4 2 4 2 ZW 1019,5 0,2
17.04.2019 03:00:00 6,8 6,0 0 0 4 2 N 1019,3 7
17.04.2019 02:00:00 7,0 6,3 4 2 - - Z 1019,4 3,8
17.04.2019 01:00:00 7,0 6,2 4 2 11 6 ZZO 1019,3 4,9
17.04.2019 00:00:00 7,2 6,4 4 2 18 10 Z 1019,1 5
16.04.2019 23:00:00 7,4 6,5 7 4 - - ZO 1018,8 6
16.04.2019 22:00:00 7,4 6,6 7 4 18 10 ZO 1018,7 8
16.04.2019 21:00:00 7,5 6,5 7 4 18 10 ZO 1018,3 11
16.04.2019 20:00:00 7,5 6,6 7 4 - - ZO 1017,8 10
16.04.2019 19:00:00 7,6 6,5 7 4 18 10 ZZO 1017,6 12
16.04.2019 18:00:00 7,6 6,4 11 6 18 10 Z 1017,3 15
16.04.2019 17:00:00 8,3 6,1 7 4 - - Z 1017,0 27
16.04.2019 16:00:00 8,2 6,6 7 4 25 14 Z 1016,9 14
16.04.2019 15:00:00 8,9 5,6 11 6 25 14 Z 1016,7 30
16.04.2019 14:00:00 9,7 4,5 14 8 - - Z 1016,1 29
16.04.2019 13:00:00 10,7 4,4 14 8 32 18 Z 1015,5 21
16.04.2019 12:00:00 10,6 3,8 18 10 29 16 ZZO 1015,2 18
16.04.2019 11:00:00 9,7 3,0 14 8 - - ZZO 1015,2 23
16.04.2019 10:00:00 8,8 2,0 14 8 32 18 ZO 1015,2 22
16.04.2019 09:00:00 7,5 0,4 18 10 32 18 OZO 1015,4 25
16.04.2019 08:00:00 6,2 -0,6 18 10 - - OZO 1015,7 26
16.04.2019 07:00:00 5,5 -0,4 22 12 32 18 O 1015,7 25
16.04.2019 06:00:00 5,8 -0,1 18 10 29 16 O 1016,0 27
16.04.2019 05:00:00 6,4 0,1 18 10 - - O 1016,2 26
16.04.2019 04:00:00 7,1 0,5 18 10 32 18 O 1016,2 28
16.04.2019 03:00:00 7,4 0,6 22 12 32 18 OZO 1016,5 25
16.04.2019 02:00:00 8,0 1,2 18 10 - - O 1016,7 26
16.04.2019 01:00:00 8,2 1,6 18 10 29 16 O 1016,8 23
16.04.2019 00:00:00 8,5 1,5 18 10 29 16 O 1017,0 22
15.04.2019 23:00:00 8,3 2,3 18 10 - - O 1017,3 21
15.04.2019 22:00:00 9,1 2,4 14 8 25 14 O 1017,3 21
15.04.2019 21:00:00 9,1 2,8 14 8 25 14 O 1017,4 24
15.04.2019 20:00:00 11,4 3,0 14 8 - - OZO 1016,8 24
15.04.2019 19:00:00 12,8 2,3 18 10 36 19 OZO 1016,7 20
15.04.2019 18:00:00 13,3 2,1 22 12 40 21 O 1016,9 22
15.04.2019 17:00:00 12,7 2,1 22 12 - - OZO 1017,7 28
15.04.2019 16:00:00 12,2 2,0 22 12 40 21 OZO 1018,5 28
15.04.2019 15:00:00 11,9 2,1 22 12 36 19 O 1019,9 35
15.04.2019 14:00:00 11,3 1,0 22 12 - - O 1020,8 23
15.04.2019 13:00:00 9,7 0,2 14 8 32 18 ZO 1021,8 19
15.04.2019 12:00:00 7,7 -0,7 18 10 32 18 OZO 1022,9 30
15.04.2019 11:00:00 5,2 -1,0 18 10 - - OZO 1024,1 29
15.04.2019 10:00:00 3,1 -0,7 18 10 32 18 OZO 1024,7 20
15.04.2019 09:00:00 1,9 -1,0 18 10 29 16 OZO 1025,2 19
15.04.2019 08:00:00 -0,3 -2,1 14 8 - - O 1025,9 -
15.04.2019 07:00:00 -1,3 -2,7 14 8 22 12 O 1026,2 -
15.04.2019 06:00:00 -0,7 -2,5 14 8 22 12 O 1026,2 -
15.04.2019 05:00:00 -0,3 -2,4 14 8 - - O 1026,2 10
15.04.2019 04:00:00 -0,4 -2,4 18 10 25 14 O 1026,4 11
15.04.2019 03:00:00 -0,2 -2,6 14 8 22 12 O 1026,7 11
15.04.2019 02:00:00 -0,3 -2,6 14 8 - - ONO 1027,2 12
15.04.2019 01:00:00 1,1 -2,5 14 8 25 14 ONO 1026,6 15
15.04.2019 00:00:00 1,9 -2,4 14 8 25 14 ONO 1025,9 17
14.04.2019 23:00:00 1,9 -2,7 14 8 - - ONO 1025,3 18
14.04.2019 22:00:00 1,8 -2,5 11 6 14 8 ONO 1025,3 19
14.04.2019 21:00:00 4,0 -3,6 7 4 7 4 NNO 1025,0 24
14.04.2019 20:00:00 5,4 -2,9 7 4 - - NNO 1024,1 26
14.04.2019 19:00:00 5,8 -3,7 11 6 25 14 NO 1023,5 20
14.04.2019 18:00:00 5,8 -1,9 11 6 25 14 O 1023,1 19
14.04.2019 17:00:00 4,6 -2,7 14 8 - - NO 1023,2 18
14.04.2019 16:00:00 4,4 -1,9 14 8 25 14 O 1023,5 14
14.04.2019 15:00:00 2,7 -1,7 11 6 22 12 NO 1024,2 10
14.04.2019 14:00:00 2,0 -2,3 14 8 - - NO 1024,0 11
14.04.2019 13:00:00 1,8 -2,8 7 4 22 12 NNO 1024,0 -
14.04.2019 12:00:00 0,0 -2,2 11 6 22 12 NO 1024,2 -
14.04.2019 11:00:00 -0,3 -2,6 11 6 - - NNO 1023,9 5
14.04.2019 10:00:00 -1,0 -3,6 11 6 22 12 NNO 1023,6 -
14.04.2019 09:00:00 -2,1 -3,8 14 8 25 14 NO 1023,7 4,2
14.04.2019 08:00:00 -3,2 -4,4 11 6 - - NO 1023,8 2,6
14.04.2019 07:00:00 -3,8 -4,9 11 6 14 8 NNO 1023,8 2,4
14.04.2019 06:00:00 -3,6 -4,8 11 6 14 8 NO 1023,7 2,4
14.04.2019 05:00:00 -4,5 -5,5 7 4 - - NO 1023,7 2,0
14.04.2019 04:00:00 -4,3 -5,4 7 4 14 8 NO 1023,7 5
14.04.2019 03:00:00 -3,5 -5,2 11 6 14 8 NO 1023,6 -
14.04.2019 02:00:00 -3,0 -5,0 11 6 - - NO 1023,8 14

tt = temperatuur
td = dauwpunt
ff = windsnelheid
fx = windstoten
dd = windrichting
ppp = luchtdruk
vv = zicht

Weerstations in de omgeving